| time (UTC) | temp C | wind direction | speed KPH | gust KPH | rain 1hr cm | rain 24hr cm | rain mn cm | humidity % | barometer mb |
| 20260505040104 | 19 | 0 | 0.0 | 0.0 | 0.00 | 0.00 | 0.00 | 30 | 1007.1 |
| 20260505034557 | 19 | 0 | 0.0 | 0.0 | 0.00 | 0.00 | 0.00 | 30 | 1006.9 |
| 20260505033101 | 19 | 0 | 0.0 | 0.0 | 0.00 | 0.00 | 0.00 | 30 | 1006.2 |
| 20260505031559 | 19 | 0 | 0.0 | 1.6 | 0.00 | 0.00 | 0.00 | 29 | 1006.0 |
| 20260505030058 | 19 | 0 | 0.0 | 1.6 | 0.00 | 0.00 | 0.00 | 29 | 1005.9 |
| 20260505024555 | 19 | 0 | 0.0 | 6.4 | 0.00 | 0.00 | 0.00 | 30 | 1005.9 |
| 20260505023052 | 19 | 0 | 0.0 | 6.4 | 0.00 | 0.00 | 0.00 | 30 | 1005.8 |
| 20260505021549 | 19 | 0 | 0.0 | 8.0 | 0.00 | 0.00 | 0.00 | 30 | 1005.6 |
| 20260505020052 | 20 | 0 | 1.6 | 12.9 | 0.00 | 0.00 | 0.00 | 29 | 1005.5 |
| 20260505014604 | 21 | 360 | 1.6 | 16.1 | 0.00 | 0.00 | 0.00 | 26 | 1005.3 |
| 20260505013053 | 24 | 0 | 0.0 | 4.8 | 0.00 | 0.00 | 0.00 | 20 | 1005.1 |
| 20260505011553 | 25 | 0 | 0.0 | 0.0 | 0.00 | 0.00 | 0.00 | 15 | 1005.1 |
| 20260505010055 | 25 | 0 | 0.0 | 0.0 | 0.00 | 0.00 | 0.00 | 16 | 1005.2 |
| 20260505004557 | 26 | 0 | 0.0 | 1.6 | 0.00 | 0.00 | 0.00 | 15 | 1005.2 |
| 20260505003058 | 26 | 0 | 0.0 | 1.6 | 0.00 | 0.00 | 0.00 | 15 | 1005.4 |
| 20260505001555 | 26 | 360 | 0.0 | 4.8 | 0.00 | 0.00 | 0.00 | 15 | 1005.4 |
| 20260505000058 | 27 | 0 | 0.0 | 0.0 | 0.00 | 0.00 | 0.00 | 14 | 1005.4 |
| 20260504234558 | 26 | 0 | 0.0 | 3.2 | 0.00 | 0.00 | 0.00 | 15 | 1005.4 |
| 20260504233055 | 26 | 0 | 0.0 | 3.2 | 0.00 | 0.00 | 0.00 | 15 | 1005.6 |
| 20260504231559 | 26 | 0 | 0.0 | 4.8 | 0.00 | 0.00 | 0.00 | 15 | 1005.6 |
| 20260504230056 | 26 | 0 | 0.0 | 3.2 | 0.00 | 0.00 | 0.00 | 13 | 1005.6 |
| 20260504224549 | 27 | 0 | 0.0 | 1.6 | 0.00 | 0.00 | 0.00 | 13 | 1005.8 |
| 20260504223051 | 26 | 0 | 0.0 | 3.2 | 0.00 | 0.00 | 0.00 | 13 | 1006.0 |
| 20260504221552 | 26 | 0 | 0.0 | 3.2 | 0.00 | 0.00 | 0.00 | 14 | 1006.1 |
| 20260504220049 | 26 | 0 | 0.0 | 4.8 | 0.00 | 0.00 | 0.00 | 15 | 1006.3 |
| 20260504214555 | 26 | 0 | 0.0 | 4.8 | 0.00 | 0.00 | 0.00 | 16 | 1006.6 |
| 20260504213055 | 26 | 0 | 0.0 | 3.2 | 0.00 | 0.00 | 0.00 | 15 | 1006.9 |
| 20260504211549 | 26 | 0 | 0.0 | 3.2 | 0.00 | 0.00 | 0.00 | 16 | 1007.1 |
| 20260504210059 | 26 | 0 | 0.0 | 3.2 | 0.00 | 0.00 | 0.00 | 16 | 1007.1 |
| 20260504204611 | 25 | 0 | 0.0 | 8.0 | 0.00 | 0.00 | 0.00 | 17 | 1007.3 |
| 20260504203115 | 25 | 0 | 0.0 | 3.2 | 0.00 | 0.00 | 0.00 | 18 | 1007.4 |
| 20260504201552 | 25 | 360 | 0.0 | 6.4 | 0.00 | 0.00 | 0.00 | 17 | 1007.5 |
| 20260504200053 | 25 | 0 | 0.0 | 3.2 | 0.00 | 0.00 | 0.00 | 20 | 1007.6 |
| 20260504194552 | 26 | 0 | 0.0 | 4.8 | 0.00 | 0.00 | 0.00 | 20 | 1007.7 |
| 20260504193053 | 25 | 0 | 0.0 | 3.2 | 0.00 | 0.00 | 0.00 | 20 | 1007.9 |
| 20260504191558 | 26 | 0 | 0.0 | 4.8 | 0.00 | 0.00 | 0.00 | 21 | 1008.0 |
| 20260504190056 | 26 | 0 | 0.0 | 4.8 | 0.00 | 0.00 | 0.00 | 22 | 1008.6 |
| 20260504184556 | 25 | 0 | 0.0 | 3.2 | 0.00 | 0.00 | 0.00 | 23 | 1008.9 |
| 20260504183058 | 24 | 0 | 0.0 | 1.6 | 0.00 | 0.00 | 0.00 | 24 | 1009.0 |
| 20260504181550 | 24 | 0 | 0.0 | 0.0 | 0.00 | 0.00 | 0.00 | 24 | 1009.2 |
| 20260504180115 | 22 | 0 | 0.0 | 0.0 | 0.00 | 0.00 | 0.00 | 25 | 1009.4 |
| 20260504174553 | 22 | 0 | 0.0 | 0.0 | 0.00 | 0.00 | 0.00 | 24 | 1009.6 |
| 20260504173102 | 22 | 0 | 0.0 | 0.0 | 0.00 | 0.00 | 0.00 | 24 | 1009.6 |
| 20260504171554 | 21 | 0 | 0.0 | 0.0 | 0.00 | 0.00 | 0.00 | 25 | 1009.6 |
| 20260504081558 | 10 | 0 | 0.0 | 0.0 | 0.00 | 0.00 | 0.00 | 46 | 1009.6 |
| 20260504044556 | 14 | 0 | 0.0 | 1.6 | 0.00 | 0.00 | 0.00 | 37 | 1010.3 |
| 20260504043056 | 15 | 0 | 0.0 | 1.6 | 0.00 | 0.00 | 0.00 | 34 | 1010.3 |
| 20260504041602 | 15 | 0 | 0.0 | 1.6 | 0.00 | 0.00 | 0.00 | 32 | 1010.2 |